Time,TemperatureF,DewpointF,PressureIn,WindDirection,WindDirectionDegrees,WindSpeedMPH,WindSpeedGustMPH,Humidity,HourlyPrecipIn,Conditions,Clouds,dailyrainin,SolarRadiationWatts/m^2,SoftwareType,DateUTC
2013-06-12 00:00:00,81.0,76.1,29.99,South,180,1.0,8.0,85,0.00,,SCT023,0.00,0.00,VWS V14.00,2013-06-12 04:00:00,
2013-06-12 00:30:00,80.8,75.9,30.00,South,180,1.0,6.0,85,0.00,,SCT023,0.00,0.00,VWS V14.00,2013-06-12 04:30:00,
2013-06-12 01:00:00,80.6,76.0,30.01,South,180,0.0,4.0,86,0.00,,SCT023,0.00,0.00,VWS V14.00,2013-06-12 05:00:00,
2013-06-12 01:30:00,80.2,76.0,30.01,South,180,0.0,0.0,87,0.00,,SCT023,0.00,0.00,VWS V14.00,2013-06-12 05:30:00,
2013-06-12 02:00:00,79.8,75.9,30.00,South,180,0.0,0.0,88,0.35,,SCT023,0.02,0.00,VWS V14.00,2013-06-12 06:00:00,
2013-06-12 02:30:00,79.1,75.6,29.99,South,180,1.0,6.0,89,1.35,,SCT023,0.08,0.00,VWS V14.00,2013-06-12 06:30:00,
2013-06-12 03:00:00,79.1,75.9,29.98,South,180,0.0,0.0,90,0.00,,SCT023,0.08,0.00,VWS V14.00,2013-06-12 07:00:00,
2013-06-12 03:30:00,77.2,73.7,29.97,South,180,0.0,2.0,89,0.00,,SCT023,0.08,0.00,VWS V14.00,2013-06-12 07:30:00,
2013-06-12 04:00:00,76.7,73.6,29.98,South,180,0.0,2.0,90,0.00,,SCT023,0.08,0.00,VWS V14.00,2013-06-12 08:00:00,
2013-06-12 04:30:00,77.1,73.9,29.98,South,180,0.0,2.0,90,0.00,,SCT023,0.08,0.00,VWS V14.00,2013-06-12 08:30:00,
2013-06-12 05:00:00,77.3,74.1,29.98,South,180,0.0,0.0,90,0.00,,SCT023,0.08,0.00,VWS V14.00,2013-06-12 09:00:00,
2013-06-12 05:30:00,77.2,74.0,29.99,South,180,0.0,1.0,90,0.00,,SCT023,0.08,0.00,VWS V14.00,2013-06-12 09:30:00,
2013-06-12 06:00:00,77.4,74.2,30.00,South,180,0.0,0.0,90,0.00,,SCT023,0.08,0.00,VWS V14.00,2013-06-12 10:00:00,
2013-06-12 06:30:00,76.7,73.6,30.00,South,180,0.0,0.0,90,0.00,,SCT023,0.08,0.00,VWS V14.00,2013-06-12 10:30:00,
2013-06-12 07:00:00,77.3,74.1,30.00,South,180,0.0,1.0,90,0.00,,SCT023,0.08,11.00,VWS V14.00,2013-06-12 11:00:00,
2013-06-12 07:30:00,78.0,74.8,30.00,South,180,0.0,0.0,90,0.00,,SCT023,0.08,118.00,VWS V14.00,2013-06-12 11:30:00,
2013-06-12 08:00:00,78.4,75.2,30.01,South,180,0.0,0.0,90,0.00,,SCT023,0.08,48.00,VWS V14.00,2013-06-12 12:00:00,
2013-06-12 08:30:00,78.6,75.4,30.01,South,180,0.0,0.0,90,0.00,,SCT023,0.08,46.00,VWS V14.00,2013-06-12 12:30:00,
2013-06-12 09:00:00,79.1,75.9,30.02,South,180,0.0,1.0,90,0.00,,SCT023,0.09,61.00,VWS V14.00,2013-06-12 13:00:00,
2013-06-12 09:30:00,80.2,76.7,30.02,South,180,0.0,1.0,89,0.00,,SCT023,0.09,87.00,VWS V14.00,2013-06-12 13:30:00,
2013-06-12 10:00:00,82.1,76.8,30.01,South,180,0.0,1.0,84,0.00,,SCT023,0.09,146.00,VWS V14.00,2013-06-12 14:00:00,
2013-06-12 10:30:00,83.3,76.1,30.01,South,180,0.0,4.0,79,0.00,,SCT023,0.09,149.00,VWS V14.00,2013-06-12 14:30:00,
2013-06-12 11:00:00,84.5,75.7,30.02,South,180,0.0,3.0,75,0.00,,SCT023,0.09,128.00,VWS V14.00,2013-06-12 15:00:00,
2013-06-12 11:30:00,85.0,75.8,30.01,South,180,0.0,3.0,74,0.00,,SCT023,0.09,145.00,VWS V14.00,2013-06-12 15:30:00,
2013-06-12 12:00:00,86.2,76.1,30.02,South,180,0.0,4.0,72,0.00,,SCT023,0.09,151.00,VWS V14.00,2013-06-12 16:00:00,
2013-06-12 12:30:00,86.1,76.4,30.03,SE,135,2.0,10.0,73,0.00,,SCT023,0.09,157.00,VWS V14.00,2013-06-12 16:30:00,
2013-06-12 13:00:00,79.0,73.0,30.03,WSW,248,5.0,15.0,82,3.11,,SCT023,0.26,30.00,VWS V14.00,2013-06-12 17:00:00,
2013-06-12 13:30:00,79.0,75.5,30.02,WSW,248,1.0,10.0,89,0.00,,SCT023,0.26,12.00,VWS V14.00,2013-06-12 17:30:00,
2013-06-12 14:00:00,76.9,73.1,30.03,SW,225,1.0,9.0,88,0.00,,SCT023,0.26,12.00,VWS V14.00,2013-06-12 18:00:00,
2013-06-12 14:30:00,77.4,73.9,30.00,WSW,248,1.0,5.0,89,0.00,,SCT023,0.26,13.00,VWS V14.00,2013-06-12 18:30:00,
2013-06-12 15:00:00,77.8,74.3,30.00,WSW,248,0.0,4.0,89,0.00,,SCT023,0.26,17.00,VWS V14.00,2013-06-12 19:00:00,
2013-06-12 15:30:00,77.9,74.4,30.03,WSW,248,1.0,7.0,89,0.00,,SCT023,0.26,15.00,VWS V14.00,2013-06-12 19:30:00,
2013-06-12 16:00:00,77.0,73.5,30.00,West,270,3.0,10.0,89,0.00,,SCT023,0.26,20.00,VWS V14.00,2013-06-12 20:00:00,
2013-06-12 16:30:00,76.9,73.1,29.99,NW,315,2.0,9.0,88,0.00,,SCT023,0.26,32.00,VWS V14.00,2013-06-12 20:30:00,
2013-06-12 17:00:00,77.3,73.5,29.97,NW,315,0.0,4.0,88,0.00,,SCT023,0.26,45.00,VWS V14.00,2013-06-12 21:00:00,
2013-06-12 17:30:00,78.2,73.7,29.98,NW,315,1.0,5.0,86,0.00,,SCT023,0.26,64.00,VWS V14.00,2013-06-12 21:30:00,
2013-06-12 18:00:00,78.8,73.9,29.99,NW,315,2.0,6.0,85,0.00,,SCT023,0.26,63.00,VWS V14.00,2013-06-12 22:00:00,
2013-06-12 18:30:00,79.1,73.8,29.99,NW,315,1.0,4.0,84,0.00,,SCT023,0.26,43.00,VWS V14.00,2013-06-12 22:30:00,
2013-06-12 19:00:00,79.4,73.8,30.00,NW,315,0.0,4.0,83,0.00,,SCT023,0.26,26.00,VWS V14.00,2013-06-12 23:00:00,
2013-06-12 19:30:00,79.1,73.8,30.00,NW,315,0.0,4.0,84,0.00,,SCT023,0.26,14.00,VWS V14.00,2013-06-12 23:30:00,
2013-06-12 20:00:00,78.5,74.0,29.99,NW,315,0.0,1.0,86,0.00,,SCT023,0.26,4.00,VWS V14.00,2013-06-13 00:00:00,
2013-06-12 20:29:00,78.2,73.7,30.00,NW,322,0.0,0.0,86,0.00,,SCT023,0.26,0.00,VWS V14.00,2013-06-13 00:29:00,
2013-06-12 20:34:00,78.2,73.7,30.00,NW,322,0.0,1.0,86,0.00,,CLR,0.26,0.00,VWS V14.00,2013-06-13 00:34:00,
2013-06-12 20:39:00,78.3,73.8,30.00,NW,322,0.0,0.0,86,0.00,,CLR,0.26,0.00,VWS V14.00,2013-06-13 00:39:00,
2013-06-12 20:44:00,78.3,73.8,30.00,NW,322,0.0,0.0,86,0.00,,CLR,0.26,0.00,VWS V14.00,2013-06-13 00:44:00,
2013-06-12 20:49:00,78.2,73.7,30.00,NW,322,0.0,0.0,86,0.00,,CLR,0.26,0.00,VWS V14.00,2013-06-13 00:49:00,
2013-06-12 20:54:00,78.2,73.7,30.00,NW,322,0.0,0.0,86,0.00,,CLR,0.26,0.00,VWS V14.00,2013-06-13 00:54:00,
2013-06-12 20:59:00,78.2,74.0,30.00,NW,322,0.0,0.0,87,0.00,,CLR,0.26,0.00,VWS V14.00,2013-06-13 00:59:00,
2013-06-12 21:04:00,78.2,74.0,30.00,NW,322,0.0,0.0,87,0.00,,CLR,0.26,0.00,VWS V14.00,2013-06-13 01:04:00,
2013-06-12 21:09:00,78.2,74.0,30.00,NW,322,0.0,0.0,87,0.00,,CLR,0.26,0.00,VWS V14.00,2013-06-13 01:09:00,
2013-06-12 21:14:00,78.2,74.0,30.01,NW,322,0.0,0.0,87,0.00,,CLR,0.26,0.00,VWS V14.00,2013-06-13 01:14:00,
2013-06-12 21:19:00,78.2,74.0,30.01,NW,322,0.0,0.0,87,0.00,,CLR,0.26,0.00,VWS V14.00,2013-06-13 01:19:00,
2013-06-12 21:24:00,78.1,73.9,30.01,NW,322,0.0,0.0,87,0.00,,CLR,0.26,0.00,VWS V14.00,2013-06-13 01:24:00,
2013-06-12 21:29:00,77.9,73.7,30.01,NW,322,0.0,0.0,87,0.00,,CLR,0.26,0.00,VWS V14.00,2013-06-13 01:29:00,
2013-06-12 21:34:00,77.8,74.0,30.01,NW,322,0.0,0.0,88,0.00,,CLR,0.26,0.00,VWS V14.00,2013-06-13 01:34:00,
2013-06-12 21:39:00,77.6,73.8,30.01,NW,322,0.0,0.0,88,0.00,,CLR,0.26,0.00,VWS V14.00,2013-06-13 01:39:00,
2013-06-12 21:44:00,77.5,73.7,30.01,NW,322,0.0,1.0,88,0.00,,CLR,0.26,0.00,VWS V14.00,2013-06-13 01:44:00,
2013-06-12 21:49:00,77.4,73.6,30.01,NW,322,0.0,0.0,88,0.00,,CLR,0.26,0.00,VWS V14.00,2013-06-13 01:49:00,
2013-06-12 21:54:00,77.2,73.4,30.01,NW,322,1.0,2.0,88,0.00,,CLR,0.26,0.00,VWS V14.00,2013-06-13 01:54:00,
2013-06-12 21:59:00,77.1,73.3,30.01,NW,322,0.0,0.0,88,0.00,,CLR,0.26,0.00,VWS V14.00,2013-06-13 01:59:00,
2013-06-12 22:04:00,77.0,73.5,30.00,NW,322,0.0,0.0,89,0.00,,CLR,0.26,0.00,VWS V14.00,2013-06-13 02:04:00,
2013-06-12 22:09:00,76.9,73.4,30.00,NW,322,0.0,0.0,89,0.00,,CLR,0.26,0.00,VWS V14.00,2013-06-13 02:09:00,
2013-06-12 22:14:00,76.8,73.3,30.00,NW,322,0.0,0.0,89,0.00,,CLR,0.26,0.00,VWS V14.00,2013-06-13 02:14:00,
2013-06-12 22:19:00,76.7,73.2,30.00,NW,322,0.0,0.0,89,0.00,,CLR,0.26,0.00,VWS V14.00,2013-06-13 02:19:00,
2013-06-12 22:24:00,76.7,73.2,30.01,NW,322,0.0,0.0,89,0.00,,CLR,0.26,0.00,VWS V14.00,2013-06-13 02:24:00,
2013-06-12 22:29:00,76.8,73.3,30.01,NW,322,0.0,0.0,89,0.00,,CLR,0.26,0.00,VWS V14.00,2013-06-13 02:29:00,
2013-06-12 22:34:00,76.7,73.2,30.00,NW,322,0.0,0.0,89,0.00,,CLR,0.26,0.00,VWS V14.00,2013-06-13 02:34:00,
2013-06-12 22:39:00,76.7,73.2,30.00,NW,322,0.0,0.0,89,0.00,,CLR,0.26,0.00,VWS V14.00,2013-06-13 02:39:00,
2013-06-12 22:44:00,76.7,73.2,30.00,NW,322,0.0,0.0,89,0.00,,CLR,0.26,0.00,VWS V14.00,2013-06-13 02:44:00,
2013-06-12 22:49:00,76.7,73.2,30.00,NW,322,0.0,0.0,89,0.00,,CLR,0.26,0.00,VWS V14.00,2013-06-13 02:49:00,
2013-06-12 22:54:00,76.6,73.1,30.00,NW,322,0.0,0.0,89,0.00,,CLR,0.26,0.00,VWS V14.00,2013-06-13 02:54:00,
2013-06-12 22:59:00,76.6,73.1,30.00,NW,322,0.0,0.0,89,0.00,,CLR,0.26,0.00,VWS V14.00,2013-06-13 02:59:00,
2013-06-12 23:04:00,76.5,73.0,30.00,NW,322,0.0,0.0,89,0.00,,CLR,0.26,0.00,VWS V14.00,2013-06-13 03:04:00,
2013-06-12 23:09:00,76.4,72.9,30.00,NW,322,0.0,0.0,89,0.00,,CLR,0.26,0.00,VWS V14.00,2013-06-13 03:09:00,
2013-06-12 23:14:00,76.4,73.2,30.00,NW,322,0.0,0.0,90,0.00,,CLR,0.26,0.00,VWS V14.00,2013-06-13 03:14:00,
2013-06-12 23:20:00,76.5,73.3,30.00,NW,322,0.0,0.0,90,0.00,,CLR,0.26,0.00,VWS V14.00,2013-06-13 03:20:00,
2013-06-12 23:25:00,76.5,73.3,30.00,NW,322,0.0,0.0,90,0.00,,CLR,0.26,0.00,VWS V14.00,2013-06-13 03:25:00,
2013-06-12 23:30:00,76.5,73.3,30.00,NW,322,0.0,0.0,90,0.00,,CLR,0.26,0.00,VWS V14.00,2013-06-13 03:30:00,
2013-06-12 23:35:00,76.4,73.2,30.00,NW,322,0.0,0.0,90,0.00,,CLR,0.26,0.00,VWS V14.00,2013-06-13 03:35:00,
2013-06-12 23:40:00,76.3,73.2,30.00,NW,322,0.0,0.0,90,0.00,,CLR,0.26,0.00,VWS V14.00,2013-06-13 03:40:00,
2013-06-12 23:45:00,76.2,73.1,30.00,NW,322,0.0,0.0,90,0.00,,CLR,0.26,0.00,VWS V14.00,2013-06-13 03:45:00,
2013-06-12 23:50:00,76.1,73.0,30.00,NW,322,0.0,0.0,90,0.00,,CLR,0.26,0.00,VWS V14.00,2013-06-13 03:50:00,
2013-06-12 23:55:00,76.0,72.9,30.00,NW,322,0.0,0.0,90,0.00,,CLR,0.26,0.00,VWS V14.00,2013-06-13 03:55:00,